This demonstration page uses our WeatherBlox Daily Observations layout. Learn more.

Left ArrowRight Arrow

39.08367, -84.50855

Hourly Observations for April 11, 2020

Temp ( °F °C ) Dew Point ( °F °C ) Humidity (%) Winds ( mph kmh ) Pressure ( in mb ) Visibility ( mi km ) Precip ( " mm )
12:53 am 00:53 Clear 36 2.2 32 0 86 86 Calm 30.04 1017 10 16 0.00 0.00
1:53 am 01:53 Clear 37 2.8 33 0.6 86 86 Calm 30.05 1018 10 16 0.00 0.00
2:53 am 02:53 Clear 35 1.7 33 0.6 93 93 Calm 30.04 1017 10 16 0.00 0.00
3:53 am 03:53 Clear 35 1.7 33 0.6 93 93 SSW 3 6 30.05 1018 10 16 0.00 0.00
4:53 am 04:53 Partly Cloudy 35 1.7 33 0.6 93 93 Calm 30.05 1018 10 16 0.00 0.00
5:53 am 05:53 Cloudy 37 2.8 34 1.1 89 89 Calm 30.04 1017 10 16 0.00 0.00
6:53 am 06:53 Cloudy 38 3.3 35 1.7 89 89 Calm 30.05 1018 10 16 0.00 0.00
7:53 am 07:53 Cloudy 40 4.4 36 2.2 86 86 undefined N/A 30.07 1018 10 16 0.00 0.00
8:53 am 08:53 Cloudy 43 6.1 36 2.2 76 76 Calm 30.08 1019 10 16 0.00 0.00
9:53 am 09:53 Cloudy 45 7.2 34 1.1 66 66 SSW 6 9 30.09 1019 10 16 0.00 0.00
10:53 am 10:53 Cloudy 51 10.6 32 0 48 48 SW 7 11 30.08 1019 10 16 0.00 0.00
11:53 am 11:53 Cloudy 55 12.8 30 -1.1 38 38 WSW 5 7 30.08 1019 10 16 0.00 0.00
12:53 pm 12:53 Cloudy 59 15 28 -2.2 31 31 W 8 13 30.05 1018 10 16 0.00 0.00
1:53 pm 13:53 Cloudy 59 15 28 -2.2 31 31 S 9 15 30.02 1017 10 16 0.00 0.00
2:53 pm 14:53 Cloudy 60 15.6 29 -1.7 31 31 SSE 10 17 29.99 1016 10 16 0.00 0.00
3:53 pm 15:53 Mostly Sunny 63 17.2 29 -1.7 28 28 SSW 14 22 29.96 1015 10 16 0.00 0.00
4:53 pm 16:53 Mostly Cloudy 62 16.7 26 -3.3 25 25 SW 9 15 29.94 1014 10 16 0.00 0.00
6:53 pm 18:53 Sunny 59 15 30 -1.1 33 33 S 9 15 29.93 1014 10 16 0.00 0.00
7:53 pm 19:53 Mostly Sunny 55 12.8 32 0 42 42 S 7 11 29.94 1014 10 16 0.00 0.00
8:53 pm 20:53 Mostly Clear 54 12.2 29 -1.7 38 38 SSE 7 11 29.93 1013 10 16 0.00 0.00
9:53 pm 21:53 Mostly Clear 52 11.1 31 -0.6 45 45 SSW 5 7 29.92 1013 10 16 0.00 0.00
10:53 pm 22:53 Clear 47 8.3 33 0.6 59 59 Calm 29.91 1013 10 16 0.00 0.00
11:53 pm 23:53 Mostly Cloudy 46 7.8 39 3.9 77 77 S 5 7 29.91 1013 10 16 0.00 0.00

Powered by AerisWeather